1508734800.9,26015,11.0,72722.5,-4.43,-5.85,-5.77,0,*5E
1508734802.17,26016,11.0,72718.8,-4.43,-5.77,-5.65,0,*53
1508734803.41,26017,11.0,72718.8,-4.43,-5.65,-5.51,0,*56
1508734804.65,26018,11.0,72710.3,-4.43,-5.61,-5.47,0,*5A
1508734805.89,26019,11.0,72718.5,-4.43,-5.73,-5.51,0,*5F
1508734807.11,26020,11.0,72710.3,-4.43,-6.13,-6.01,0,*56
1508734808.38,26021,11.0,72710.0,-4.43,-6.19,-6.19,0,*54
1508734809.58,26022,11.0,72712.3,-4.45,-6.59,-6.47,0,*5E
1508734810.77,26023,11.0,72700.3,-4.45,-6.73,-6.59,0,*58
1508734811.97,26024,11.0,72700.3,-4.45,-6.35,-6.31,0,*53
1508734813.17,26025,11.0,72694.3,-4.49,-6.59,-6.39,0,*5C
1508734814.38,26026,11.0,72698.3,-4.47,-6.13,-6.05,0,*50
1508734815.59,26027,11.0,72692.0,-4.47,-6.05,-6.01,0,*52
1508734816.81,26028,11.0,72688.5,-4.49,-6.35,-6.27,0,*54
1508734818.04,26029,11.0,72686.8,-4.47,-6.23,-6.13,0,*5B
1508734819.27,26030,11.0,72690.8,-4.49,-6.35,-6.19,0,*50
1508734820.48,26031,11.0,72692.3,-4.49,-5.97,-5.93,0,*5B
1508734821.76,26032,11.0,72692.8,-4.51,-5.93,-5.85,0,*52
1508734823.03,26033,11.0,72704.3,-4.51,-5.93,-5.73,0,*5A
1508734824.3,26034,11.0,72704.3,-4.51,-5.81,-5.69,0,*55
1508734825.57,26035,11.0,72710.5,-4.51,-5.85,-5.73,0,*5B
1508734826.84,26036,11.0,72706.5,-4.51,-5.73,-5.61,0,*52
1508734828.08,26037,11.0,72712.5,-4.51,-5.61,-5.55,0,*57
1508734829.32,26038,11.0,72718.8,-4.51,-5.61,-5.47,0,*5B
1508734830.54,26039,11.0,72714.8,-4.49,-5.61,-5.55,0,*50
1508734831.74,26040,11.0,72718.3,-4.49,-5.55,-5.47,0,*5A
1508734832.94,26041,11.0,72720.8,-4.49,-5.55,-5.47,0,*5B
1508734834.13,26042,11.0,72722.3,-4.49,-5.55,-5.35,0,*5D
1508734835.33,26043,11.0,72724.5,-4.49,-5.55,-5.43,0,*5D
1508734836.53,26044,11.0,72730.3,-4.49,-5.55,-5.43,0,*5A
1508734837.72,26045,11.0,72724.5,-4.49,-5.55,-5.43,0,*5B
1508734838.93,26046,11.0,72726.0,-4.47,-5.43,-5.43,0,*51
1508734840.13,26047,11.0,72728.8,-4.49,-5.55,-5.47,0,*5D
1508734841.34,26048,11.0,72736.8,-4.47,-5.43,-5.39,0,*52
1508734842.53,26049,11.0,72736.5,-4.49,-5.47,-5.43,0,*54
1508734843.74,26050,11.0,72730.8,-4.47,-5.43,-5.39,0,*5B
1508734844.98,26051,11.0,72726.3,-4.47,-5.43,-5.31,0,*52
1508734846.17,26052,11.0,72726.0,-4.49,-5.47,-5.43,0,*5E
1508734847.41,26053,11.0,72724.8,-4.47,-5.43,-5.31,0,*50
1508734848.6,26054,11.0,72704.8,-4.49,-5.47,-5.43,0,*58
1508734849.82,26055,11.0,72706.5,-4.47,-5.43,-5.39,0,*5E
1508734851.01,26056,11.0,72716.0,-4.49,-5.47,-5.43,0,*5A
1508734852.19,26057,11.0,72718.0,-4.49,-5.43,-5.35,0,*5E
1508734853.39,26058,11.0,72712.3,-4.49,-5.47,-5.35,0,*55
1508734854.63,26059,11.0,72704.8,-4.47,-5.43,-5.31,0,*5A
1508734855.84,26060,11.0,72712.0,-4.47,-5.43,-5.39,0,*58
1508734857.05,26061,11.0,72710.0,-4.47,-5.43,-5.39,0,*59
1508734858.26,26062,11.0,72710.8,-4.47,-5.43,-5.39,0,*5A
1508734859.45,26063,11.0,72712.8,-4.49,-5.47,-5.47,0,*58
1508734860.66,26064,11.0,72714.0,-4.47,-5.43,-5.43,0,*51
1508734861.87,26065,11.0,72714.8,-4.47,-5.51,-5.43,0,*53
1508734863.09,26066,11.0,72710.5,-4.47,-5.51,-5.39,0,*5D
1508734864.32,26067,11.0,72720.5,-4.45,-5.51,-5.31,0,*56
1508734865.51,26068,11.0,72718.8,-4.45,-5.39,-5.39,0,*5F
1508734866.73,26069,11.0,72720.3,-4.45,-5.43,-5.31,0,*5B
1508734867.94,26070,11.0,72708.8,-4.47,-5.43,-5.39,0,*59
1508734869.18,26071,11.0,72710.5,-4.47,-5.39,-5.31,0,*5D
1508734870.4,26072,11.0,72710.0,-4.45,-5.39,-5.31,0,*5C
1508734871.63,26073,11.0,72706.0,-4.45,-5.39,-5.31,0,*5D
1508734872.88,26074,11.0,72712.3,-4.45,-5.31,-5.31,0,*52
1508734874.13,26075,11.0,72712.3,-4.45,-5.31,-5.27,0,*54
1508734875.38,26076,11.0,72720.5,-4.45,-5.31,-5.27,0,*57
1508734876.66,26077,11.0,72722.8,-4.43,-5.27,-5.23,0,*53
1508734877.91,26078,11.0,72716.5,-4.45,-5.31,-5.27,0,*59
1508734879.13,26079,11.0,72712.8,-4.45,-5.39,-5.31,0,*57
1508734880.35,26080,11.0,72716.0,-4.45,-5.39,-5.31,0,*51
1508734881.55,26081,11.0,72712.8,-4.45,-5.39,-5.39,0,*58
1508734882.74,26082,11.0,72722.5,-4.45,-5.43,-5.39,0,*56
1508734883.96,26083,11.0,72718.5,-4.45,-5.35,-5.27,0,*59
1508734885.21,26084,11.0,72718.3,-4.43,-5.35,-5.27,0,*58
1508734886.46,26085,11.0,72720.0,-4.45,-5.31,-5.31,0,*5C
1508734887.68,26086,11.0,72722.0,-4.45,-5.39,-5.31,0,*57
1508734888.9,26087,11.0,72724.0,-4.45,-5.39,-5.31,0,*56
1508734890.15,26088,11.0,72726.5,-4.43,-5.35,-5.27,0,*54
1508734891.39,26089,11.0,72724.8,-4.43,-5.39,-5.31,0,*5E
1508734892.62,26090,11.0,72726.5,-4.45,-5.39,-5.31,0,*50
1508734893.81,26091,11.0,72718.0,-4.45,-5.43,-5.39,0,*54
1508734895.03,26092,11.0,72716.8,-4.43,-5.47,-5.35,0,*59
1508734896.22,26093,11.0,72718.0,-4.45,-5.51,-5.43,0,*58
1508734897.44,26094,11.0,72724.8,-4.43,-5.47,-5.35,0,*5F
1508734898.69,26095,11.0,72738.3,-4.43,-5.39,-5.27,0,*54
1508734899.91,26096,11.0,72708.3,-4.45,-5.65,-5.43,0,*5A
1508734901.14,26097,11.0,72718.0,-4.43,-5.61,-5.47,0,*5D
1508734902.37,26098,11.0,72712.5,-4.45,-5.51,-5.31,0,*56
1508734903.59,26099,11.0,72710.5,-4.43,-5.47,-5.35,0,*52
1508734904.79,26100,11.0,72698.3,-4.45,-5.55,-5.39,0,*5A
1508734906.01,26101,11.0,72712.0,-4.45,-5.39,-5.31,0,*59
1508734907.26,26102,11.0,72714.5,-4.43,-5.39,-5.27,0,*5B
1508734908.48,26103,11.0,72722.8,-4.45,-5.43,-5.31,0,*56
1508734909.69,26104,11.0,72722.8,-4.43,-5.39,-5.35,0,*5E
1508734910.91,26105,11.0,72716.8,-4.45,-5.43,-5.31,0,*50
1508734912.16,26106,11.0,72724.0,-4.43,-5.35,-5.27,0,*53
1508734913.38,26107,11.0,72728.8,-4.45,-5.43,-5.31,0,*52
1508734914.62,26108,11.0,72728.0,-4.45,-5.27,-5.31,0,*5F
1508734915.87,26109,11.0,72728.0,-4.45,-5.31,-5.31,0,*59
1508734917.15,26110,11.0,72720.5,-4.43,-5.27,-5.23,0,*53
1508734918.42,26111,11.0,72728.0,-4.43,-5.27,-5.23,0,*52
1508734919.7,26112,11.0,72726.0,-4.43,-5.27,-5.23,0,*51
1508734920.97,26113,11.0,72716.8,-4.43,-5.27,-5.27,0,*54
1508734922.24,26114,11.0,72718.8,-4.43,-5.27,-5.27,0,*53
1508734923.51,26115,11.0,72728.5,-4.43,-5.27,-5.19,0,*5F
1508734924.79,26116,11.0,72730.0,-4.43,-5.27,-5.27,0,*51
1508734926.03,26117,11.0,72726.8,-4.43,-5.35,-5.27,0,*53
1508734927.26,26118,11.0,72722.3,-4.45,-5.39,-5.31,0,*51
1508734928.5,26119,11.0,72722.0,-4.43,-5.35,-5.27,0,*5D
1508734929.75,26120,11.0,72726.5,-4.43,-5.35,-5.27,0,*57
1508734931.02,26121,11.0,72726.5,-4.43,-5.27,-5.27,0,*55
1508734932.27,26122,11.0,72722.0,-4.43,-5.35,-5.27,0,*55
1508734933.54,26123,11.0,72724.3,-4.43,-5.27,-5.19,0,*5A
1508734934.79,26124,11.0,72722.0,-4.41,-5.23,-5.19,0,*5B
1508734936.04,26125,11.0,72720.3,-4.41,-5.23,-5.19,0,*5A
1508734937.29,26126,11.0,72720.3,-4.41,-5.19,-5.19,0,*50
1508734938.54,26127,11.0,72726.5,-4.41,-5.19,-5.19,0,*51
1508734939.79,26128,11.0,72720.5,-4.41,-5.31,-5.19,0,*54
1508734941.04,26129,11.0,72724.5,-4.41,-5.23,-5.19,0,*56
1508734942.29,26130,11.0,72732.8,-4.41,-5.23,-5.19,0,*5E
1508734943.54,26131,11.0,72734.3,-4.41,-5.23,-5.19,0,*5F
1508734944.79,26132,11.0,72728.3,-4.41,-5.23,-5.19,0,*5C
1508734946.04,26133,11.0,72730.8,-4.41,-5.31,-5.19,0,*5E
1508734947.32,26134,11.0,72724.8,-4.39,-5.23,-5.19,0,*55
1508734948.57,26135,11.0,72722.3,-4.41,-5.23,-5.19,0,*5B
1508734949.82,26136,11.0,72726.0,-4.41,-5.23,-5.19,0,*58
1508734951.07,26137,11.0,72730.3,-4.41,-5.23,-5.19,0,*59
1508734952.32,26138,11.0,72728.5,-4.41,-5.23,-5.15,0,*5A
1508734953.57,26139,11.0,72724.0,-4.41,-5.23,-5.19,0,*57
1508734954.84,26140,11.0,72724.8,-4.39,-5.31,-5.19,0,*55
1508734956.09,26141,11.0,72730.0,-4.41,-5.23,-5.19,0,*58
1508734957.36,26142,11.0,72724.5,-4.39,-5.23,-5.19,0,*54
1508734958.61,26143,11.0,72730.0,-4.41,-5.23,-5.19,0,*5A
1508734959.87,26144,11.0,72730.8,-4.41,-5.23,-5.19,0,*5D
1508734961.12,26145,11.0,72728.0,-4.41,-5.23,-5.19,0,*5C
1508734962.37,26146,11.0,72726.3,-4.41,-5.23,-5.19,0,*5F
1508734963.62,26147,11.0,72722.3,-4.41,-5.23,-5.19,0,*5E
1508734964.89,26148,11.0,72726.8,-4.39,-5.23,-5.19,0,*5E
1508734966.14,26149,11.0,72728.0,-4.41,-5.23,-5.19,0,*50
1508734967.39,26150,11.0,72720.5,-4.41,-5.31,-5.19,0,*5B
1508734968.66,26151,11.0,72728.8,-4.39,-5.23,-5.15,0,*5A
1508734969.93,26152,11.0,72726.3,-4.39,-5.23,-5.19,0,*55
1508734971.2,26153,11.0,72720.5,-4.39,-5.23,-5.19,0,*54
1508734972.45,26154,11.0,72720.5,-4.39,-5.35,-5.31,0,*5E
1508734973.69,26155,11.0,72722.3,-4.39,-5.43,-5.23,0,*5D
1508734974.96,26156,11.0,72726.5,-4.39,-5.31,-5.23,0,*5B
1508734976.23,26157,11.0,72724.8,-4.39,-5.31,-5.23,0,*5A
1508734977.51,26158,11.0,72720.0,-4.39,-5.23,-5.23,0,*56
1508734978.76,26159,11.0,72722.0,-4.41,-5.31,-5.23,0,*5B
1508734980.02,26160,11.0,72720.3,-4.41,-5.31,-5.23,0,*51
1508734981.27,26161,11.0,72720.5,-4.41,-5.31,-5.23,0,*50
1508734982.54,26162,11.0,72724.5,-4.39,-5.23,-5.31,0,*5C
1508734983.82,26163,11.0,72724.3,-4.39,-5.31,-5.23,0,*5D
1508734985.04,26164,11.0,72722.0,-4.41,-5.35,-5.23,0,*51
1508734986.28,26165,11.0,72722.8,-4.39,-5.43,-5.23,0,*5E
1508734987.56,26166,11.0,72726.5,-4.39,-5.31,-5.23,0,*58
1508734988.83,26167,11.0,72722.8,-4.39,-5.23,-5.23,0,*5A
1508734990.1,26168,11.0,72720.3,-4.39,-5.23,-5.23,0,*55
1508734991.38,26169,11.0,72716.5,-4.39,-5.31,-5.23,0,*57
1508734992.65,26170,11.0,72720.5,-4.39,-5.23,-5.23,0,*5C
1508734993.93,26171,11.0,72716.8,-4.39,-5.31,-5.23,0,*5E
1508734995.15,26172,11.0,72718.5,-4.41,-5.35,-5.31,0,*55
1508734996.39,26173,11.0,72722.5,-4.39,-5.35,-5.31,0,*5B
1508734997.66,26174,11.0,72726.3,-4.39,-5.31,-5.31,0,*58
1508734998.9,26175,11.0,72722.0,-4.39,-5.35,-5.31,0,*5D
1508735000.15,26176,11.0,72722.5,-4.39,-5.35,-5.31,0,*5E
1508735001.39,26177,11.0,72720.0,-4.39,-5.35,-5.23,0,*5C
1508735002.61,26178,11.0,72724.5,-4.41,-5.35,-5.23,0,*5C
1508735003.84,26179,11.0,72712.5,-4.41,-5.35,-5.31,0,*5E
1508735005.08,26180,11.0,72726.3,-4.39,-5.35,-5.31,0,*57
1508735006.32,26181,11.0,72722.0,-4.39,-5.35,-5.31,0,*56
1508735007.55,26182,11.0,72722.8,-4.41,-5.35,-5.23,0,*59
1508735008.79,26183,11.0,72722.5,-4.39,-5.35,-5.23,0,*57
1508735010.02,26184,11.0,72722.3,-4.41,-5.35,-5.23,0,*5F
1508735011.25,26185,11.0,72714.5,-4.39,-5.43,-5.31,0,*53
1508735012.5,26186,11.0,72718.0,-4.39,-5.35,-5.23,0,*52
1508735013.74,26187,11.0,72716.3,-4.39,-5.43,-5.23,0,*52
1508735014.98,26188,11.0,72710.0,-4.39,-5.43,-5.23,0,*5D
1508735016.23,26189,11.0,72716.8,-4.39,-5.35,-5.23,0,*5D
1508735017.47,26190,11.0,72716.5,-4.39,-5.35,-5.23,0,*55
1508735018.72,26191,11.0,72720.5,-4.39,-5.35,-5.23,0,*54
1508735019.99,26192,11.0,72726.8,-4.39,-5.31,-5.23,0,*53
1508735021.27,26193,11.0,72718.8,-4.39,-5.31,-5.23,0,*52
1508735022.54,26194,11.0,72722.5,-4.39,-5.31,-5.23,0,*55
1508735023.75,26195,11.0,72722.8,-4.39,-5.35,-5.35,0,*57
1508735024.99,26196,11.0,72720.8,-4.39,-5.43,-5.31,0,*51
1508735026.23,26197,11.0,72724.3,-4.39,-5.35,-5.23,0,*52
1508735027.49,26198,11.0,72716.8,-4.41,-5.23,-5.23,0,*55
1508735028.76,26199,11.0,72716.3,-4.39,-5.31,-5.23,0,*58
1508735030.01,26200,11.0,72720.0,-4.39,-5.35,-5.23,0,*5F
1508735031.25,26201,11.0,72724.8,-4.39,-5.35,-5.31,0,*5D
1508735032.52,26202,11.0,72726.3,-4.39,-5.23,-5.23,0,*5A
1508735033.8,26203,11.0,72716.5,-4.39,-5.31,-5.23,0,*58
1508735035.07,26204,11.0,72718.8,-4.39,-5.23,-5.23,0,*5C
1508735036.32,26205,11.0,72720.3,-4.41,-5.23,-5.19,0,*5B
1508735037.59,26206,11.0,72716.3,-4.39,-5.23,-5.19,0,*57
1508735038.87,26207,11.0,72718.8,-4.39,-5.31,-5.19,0,*55
1508735040.14,26208,11.0,72716.8,-4.39,-5.23,-5.19,0,*59
1508735041.41,26209,11.0,72722.3,-4.39,-5.31,-5.23,0,*52
1508735042.66,26210,11.0,72724.3,-4.39,-5.35,-5.23,0,*5E
1508735043.93,26211,11.0,72730.0,-4.39,-5.31,-5.23,0,*5B
1508735045.2,26212,11.0,72726.3,-4.39,-5.31,-5.23,0,*58
1508735046.45,26213,11.0,72720.5,-4.39,-5.35,-5.23,0,*5D
1508735047.69,26214,11.0,72722.5,-4.39,-5.43,-5.23,0,*5B
1508735048.93,26215,11.0,72722.3,-4.39,-5.35,-5.31,0,*58
1508735050.21,26216,11.0,72726.0,-4.39,-5.31,-5.23,0,*5C
1508735051.48,26217,11.0,72724.8,-4.39,-5.23,-5.19,0,*57
1508735052.72,26218,11.0,72722.5,-4.39,-5.35,-5.23,0,*56
1508735053.96,26219,11.0,72726.8,-4.39,-5.43,-5.23,0,*56
1508735055.24,26220,11.0,72724.0,-4.39,-5.31,-5.23,0,*59
1508735056.49,26221,11.0,72722.3,-4.41,-5.23,-5.23,0,*54
1508735057.74,26222,11.0,72724.3,-4.39,-5.35,-5.23,0,*5F
1508735058.98,26223,11.0,72724.0,-4.39,-5.35,-5.31,0,*5D
1508735060.22,26224,11.0,72718.3,-4.39,-5.35,-5.31,0,*5A
1508735061.46,26225,11.0,72718.5,-4.39,-5.35,-5.31,0,*5B
1508735062.7,26226,11.0,72720.5,-4.39,-5.43,-5.23,0,*5A
1508735063.95,26227,11.0,72718.3,-4.39,-5.35,-5.31,0,*59
1508735065.17,26228,11.0,72718.8,-4.41,-5.47,-5.31,0,*5C
1508735066.41,26229,11.0,72716.3,-4.39,-5.35,-5.31,0,*57
1508735067.65,26230,11.0,72714.5,-4.39,-5.43,-5.31,0,*5E
1508735068.89,26231,11.0,72720.0,-4.39,-5.43,-5.31,0,*5F
1508735070.13,26232,11.0,72716.5,-4.39,-5.43,-5.31,0,*5C
1508735071.37,26233,11.0,72734.0,-4.39,-5.35,-5.23,0,*5F
1508735072.57,26234,11.0,72724.5,-4.41,-5.35,-5.35,0,*50
1508735073.78,26235,11.0,72728.3,-4.39,-5.43,-5.35,0,*5F
1508735075.01,26236,11.0,72728.5,-4.39,-5.43,-5.31,0,*58
1508735076.25,26237,11.0,72734.0,-4.39,-5.35,-5.31,0,*58
1508735077.48,26238,11.0,72736.5,-4.41,-5.43,-5.23,0,*5A
1508735078.72,26239,11.0,72730.3,-4.39,-5.35,-5.31,0,*56
1508735079.94,26240,11.0,72732.3,-4.41,-5.35,-5.31,0,*57
1508735081.18,26241,11.0,72728.3,-4.39,-5.43,-5.31,0,*58
1508735082.42,26242,11.0,72732.0,-4.39,-5.43,-5.31,0,*5B
1508735083.66,26243,11.0,72736.0,-4.39,-5.35,-5.23,0,*58
1508735084.94,26244,11.0,72734.8,-4.39,-5.31,-5.23,0,*5B
1508735086.18,26245,11.0,72732.0,-4.39,-5.35,-5.23,0,*5E
1508735087.43,26246,11.0,72732.5,-4.39,-5.35,-5.23,0,*5D
1508735088.68,26247,11.0,72736.8,-4.41,-5.31,-5.23,0,*57
1508735089.95,26248,11.0,72738.8,-4.39,-5.31,-5.31,0,*54
1508735091.2,26249,11.0,72732.3,-4.39,-5.35,-5.23,0,*52
1508735092.44,26250,11.0,72734.0,-4.39,-5.35,-5.31,0,*59
1508735093.71,26251,11.0,72732.0,-4.39,-5.31,-5.23,0,*5F
1508735094.97,26252,11.0,72738.0,-4.41,-5.31,-5.23,0,*53
1508735096.22,26253,11.0,72734.0,-4.41,-5.23,-5.23,0,*51
1508735097.5,26254,11.0,72732.8,-4.39,-5.31,-5.23,0,*5A
1508735098.77,26255,11.0,72732.3,-4.39,-5.31,-5.23,0,*5B
1508735100.01,26256,11.0,72734.3,-4.39,-5.35,-5.23,0,*5C
1508735101.26,26257,11.0,72726.8,-4.39,-5.35,-5.23,0,*5D
1508735102.5,26258,11.0,72720.3,-4.39,-5.43,-5.31,0,*50
1508735103.72,26259,11.0,72728.3,-4.41,-5.35,-5.31,0,*5F
1508735104.93,26260,11.0,72734.3,-4.39,-5.43,-5.35,0,*5F
1508735106.17,26261,11.0,72732.0,-4.39,-5.43,-5.23,0,*59
1508735107.41,26262,11.0,72734.3,-4.39,-5.43,-5.31,0,*59
1508735108.63,26263,11.0,72732.8,-4.41,-5.43,-5.31,0,*57
1508735109.87,26264,11.0,72734.8,-4.39,-5.35,-5.31,0,*5E
1508735111.11,26265,11.0,72730.8,-4.39,-5.47,-5.31,0,*5A
1508735112.31,26266,11.0,72730.0,-4.41,-5.55,-5.43,0,*50
1508735113.54,26267,11.0,72732.8,-4.41,-5.47,-5.31,0,*57
1508735114.75,26268,11.0,72732.0,-4.39,-5.47,-5.43,0,*52
1508735115.97,26269,11.0,72732.3,-4.39,-5.55,-5.35,0,*51
1508735117.19,26270,11.0,72732.0,-4.39,-5.55,-5.47,0,*5C
1508735118.41,26271,11.0,72726.5,-4.41,-5.61,-5.55,0,*56
1508735119.66,26272,11.0,72726.0,-4.39,-5.61,-5.55,0,*5A
1508735120.87,26273,11.0,72716.3,-4.39,-5.47,-5.43,0,*58
1508735122.07,26274,11.0,72714.3,-4.41,-5.47,-5.35,0,*51
1508735123.29,26275,11.0,72718.5,-4.41,-5.43,-5.31,0,*50
1508735124.51,26276,11.0,72720.8,-4.41,-5.47,-5.31,0,*57
1508735125.73,26277,11.0,72718.8,-4.39,-5.55,-5.43,0,*5F
1508735126.93,26278,11.0,72714.5,-4.41,-5.55,-5.47,0,*5B
1508735128.14,26279,11.0,72714.8,-4.39,-5.47,-5.35,0,*53
1508735129.36,26280,11.0,72722.8,-4.39,-5.47,-5.43,0,*54
1508735130.58,26281,11.0,72738.5,-4.41,-5.47,-5.31,0,*5F
1508735131.83,26282,11.0,72728.5,-4.39,-5.55,-5.31,0,*50
1508735133.03,26283,11.0,72730.8,-4.41,-5.55,-5.43,0,*5B
1508735134.25,26284,11.0,72732.3,-4.39,-5.47,-5.35,0,*51
1508735135.46,26285,11.0,72734.0,-4.41,-5.43,-5.31,0,*5F
1508735136.69,26286,11.0,72732.8,-4.41,-5.35,-5.23,0,*5E
1508735137.93,26287,11.0,72728.3,-4.39,-5.43,-5.31,0,*52
1508735139.12,26288,11.0,72730.8,-4.41,-5.43,-5.35,0,*56
1508735140.34,26289,11.0,72726.0,-4.39,-5.55,-5.43,0,*5E
1508735141.57,26290,11.0,72726.3,-4.39,-5.61,-5.43,0,*51
1508735142.77,26291,11.0,72726.3,-4.41,-5.47,-5.43,0,*5B
1508735143.97,26292,11.0,72722.5,-4.41,-5.55,-5.35,0,*5A
1508735145.18,26293,11.0,72722.5,-4.39,-5.47,-5.35,0,*57
1508735146.41,26294,11.0,72720.0,-4.41,-5.47,-5.31,0,*5B
1508735147.62,26295,11.0,72716.5,-4.41,-5.43,-5.31,0,*5E
1508735148.85,26296,11.0,72718.5,-4.41,-5.47,-5.31,0,*59
1508735150.04,26297,11.0,72718.0,-4.41,-5.47,-5.35,0,*5C
1508735151.31,26298,11.0,72714.5,-4.43,-5.85,-5.73,0,*5D
1508735152.53,26299,11.0,72712.8,-4.41,-5.61,-5.47,0,*53
1508735153.73,26300,11.0,72718.5,-4.41,-5.55,-5.43,0,*51
1508735154.93,26301,11.0,72728.0,-4.41,-5.55,-5.43,0,*50
1508735156.13,26302,11.0,72730.5,-4.41,-5.55,-5.35,0,*52
1508735157.32,26303,11.0,72730.3,-4.41,-5.55,-5.43,0,*52
1508735158.52,26304,11.0,72728.8,-4.41,-5.55,-5.43,0,*55
1508735159.71,26305,11.0,72726.0,-4.41,-5.43,-5.35,0,*52
1508735160.91,26306,11.0,72726.8,-4.41,-5.47,-5.35,0,*55
1508735162.1,26307,11.0,72726.5,-4.41,-5.35,-5.35,0,*51
1508735163.31,26308,11.0,72720.8,-4.39,-5.43,-5.35,0,*50
1508735164.5,26309,11.0,72726.0,-4.41,-5.43,-5.35,0,*5E
1508735165.72,26310,11.0,72726.5,-4.41,-5.35,-5.31,0,*53
1508735166.94,26311,11.0,72728.5,-4.41,-5.35,-5.31,0,*52
1508735168.16,26312,11.0,72734.8,-4.41,-5.43,-5.23,0,*53
1508735169.42,26313,11.0,72734.5,-4.41,-5.31,-5.23,0,*57
1508735170.64,26314,11.0,72728.0,-4.41,-5.35,-5.23,0,*54
1508735171.87,26315,11.0,72730.8,-4.41,-5.35,-5.23,0,*55
1508735173.12,26316,11.0,72728.3,-4.41,-5.31,-5.23,0,*52
1508735174.35,26317,11.0,72722.5,-4.41,-5.47,-5.31,0,*51
1508735175.57,26318,11.0,72726.8,-4.41,-5.47,-5.31,0,*5E
1508735176.8,26319,11.0,72728.0,-4.41,-5.35,-5.23,0,*59
1508735178.02,26320,11.0,72730.5,-4.41,-5.43,-5.23,0,*52
1508735179.24,26321,11.0,72732.3,-4.41,-5.35,-5.23,0,*52
1508735180.5,26322,11.0,72732.3,-4.41,-5.31,-5.23,0,*55
1508735181.75,26323,11.0,72734.5,-4.41,-5.23,-5.23,0,*57
1508735182.98,26324,11.0,72738.5,-4.41,-5.35,-5.23,0,*57
1508735184.2,26325,11.0,72736.3,-4.41,-5.35,-5.23,0,*56
1508735185.43,26326,11.0,72736.3,-4.41,-5.35,-5.23,0,*55
1508735186.67,26327,11.0,72732.0,-4.39,-5.43,-5.31,0,*59
1508735187.91,26328,11.0,72728.5,-4.39,-5.35,-5.31,0,*57
1508735189.15,26329,11.0,72724.5,-4.39,-5.35,-5.31,0,*56
1508735190.37,26330,11.0,72728.5,-4.41,-5.35,-5.31,0,*51
1508735191.59,26331,11.0,72736.0,-4.41,-5.43,-5.31,0,*51
1508735192.78,26332,11.0,72742.3,-4.41,-5.43,-5.43,0,*57
1508735193.97,26333,11.0,72732.8,-4.41,-5.47,-5.35,0,*53
1508735195.22,26334,11.0,72732.5,-4.39,-5.35,-5.31,0,*5A
1508735196.44,26335,11.0,72722.0,-4.41,-5.35,-5.23,0,*57
1508735197.63,26336,11.0,72716.3,-4.41,-5.43,-5.43,0,*53
1508735198.85,26337,11.0,72732.5,-4.41,-5.61,-5.43,0,*52
1508735200.06,26338,11.0,72724.0,-4.39,-5.47,-5.43,0,*56
1508735201.26,26339,11.0,72722.5,-4.41,-5.47,-5.43,0,*58
1508735202.47,26340,11.0,72724.5,-4.39,-5.47,-5.35,0,*58
1508735203.68,26341,11.0,72726.8,-4.43,-5.43,-5.35,0,*50
1508735204.93,26342,11.0,72730.0,-4.43,-5.39,-5.27,0,*5D
1508735206.18,26343,11.0,72728.8,-4.43,-5.39,-5.27,0,*5C
1508735207.4,26344,11.0,72730.5,-4.43,-5.47,-5.35,0,*51
1508735208.61,26345,11.0,72738.0,-4.43,-5.39,-5.35,0,*59
1508735209.89,26346,11.0,72728.8,-4.43,-5.27,-5.27,0,*56
1508735211.13,26347,11.0,72738.0,-4.43,-5.35,-5.27,0,*54
1508735212.38,26348,11.0,72736.0,-4.43,-5.35,-5.27,0,*5B
1508735213.63,26349,11.0,72736.8,-4.43,-5.35,-5.27,0,*5A
1508735214.87,26350,11.0,72732.5,-4.43,-5.35,-5.31,0,*55
1508735216.12,26351,11.0,72736.5,-4.43,-5.35,-5.27,0,*53
1508735217.39,26352,11.0,72734.0,-4.43,-5.27,-5.23,0,*57
1508735218.67,26353,11.0,72738.5,-4.43,-5.27,-5.23,0,*56
1508735219.92,26354,11.0,72736.0,-4.43,-5.35,-5.23,0,*52
1508735221.19,26355,11.0,72736.5,-4.43,-5.27,-5.23,0,*50
1508735222.44,26356,11.0,72738.5,-4.41,-5.31,-5.19,0,*5F
1508735223.69,26357,11.0,72736.5,-4.41,-5.31,-5.31,0,*54
1508735224.94,26358,11.0,72738.5,-4.41,-5.31,-5.23,0,*58
1508735226.2,26359,11.0,72740.3,-4.41,-5.23,-5.23,0,*5A
1508735227.45,26360,11.0,72746.0,-4.41,-5.23,-5.23,0,*50
1508735228.71,26361,11.0,72744.3,-4.41,-5.23,-5.19,0,*58
1508735229.98,26362,11.0,72740.5,-4.39,-5.23,-5.19,0,*54
1508735231.23,26363,11.0,72744.3,-4.41,-5.31,-5.19,0,*59
1508735232.48,26364,11.0,72742.0,-4.41,-5.23,-5.23,0,*54
1508735233.73,26365,11.0,72746.8,-4.41,-5.31,-5.23,0,*56
1508735234.93,26366,11.0,72740.8,-4.41,-5.47,-5.35,0,*53
1508735236.15,26367,11.0,72732.0,-4.41,-5.35,-5.31,0,*53
1508735237.37,26368,11.0,72732.3,-4.41,-5.43,-5.31,0,*5D
1508735238.59,26369,11.0,72734.5,-4.41,-5.35,-5.31,0,*5D
1508735239.82,26370,11.0,72736.5,-4.41,-5.35,-5.23,0,*56
1508735241.04,26371,11.0,72728.3,-4.41,-5.35,-5.31,0,*54
1508735242.28,26372,11.0,72730.8,-4.39,-5.35,-5.31,0,*58
1508735243.5,26373,11.0,72722.3,-4.41,-5.43,-5.31,0,*57
1508735244.73,26374,11.0,72724.8,-4.41,-5.55,-5.31,0,*57
1508735245.92,26375,11.0,72728.5,-4.41,-5.47,-5.43,0,*50
1508735247.14,26376,11.0,72726.3,-4.43,-5.51,-5.35,0,*57
1508735248.34,26377,11.0,72724.5,-4.45,-5.51,-5.43,0,*51
1508735249.56,26378,11.0,72722.8,-4.43,-5.51,-5.47,0,*5C
1508735250.81,26379,11.0,72726.0,-4.43,-5.39,-5.27,0,*55
1508735252.05,26380,11.0,72718.3,-4.43,-5.39,-5.27,0,*53
1508735253.29,26381,11.0,72718.8,-4.43,-5.61,-5.47,0,*59
1508735254.53,26382,11.0,72720.3,-4.43,-5.61,-5.39,0,*53
1508735255.75,26383,11.0,72726.8,-4.43,-5.47,-5.47,0,*5F
1508735256.97,26384,11.0,72734.3,-4.43,-5.47,-5.39,0,*51
1508735258.19,26385,11.0,72734.0,-4.43,-5.47,-5.35,0,*5C
1508735259.4,26386,11.0,72742.5,-4.43,-5.39,-5.35,0,*56
1508735260.64,26387,11.0,72736.5,-4.43,-5.61,-5.47,0,*5F
1508735261.89,26388,11.0,72718.0,-4.43,-5.65,-5.51,0,*53
1508735263.13,26389,11.0,72714.0,-4.43,-5.73,-5.51,0,*55
1508735264.38,26390,11.0,72724.8,-4.43,-5.65,-5.51,0,*5A
1508735265.65,26391,11.0,72736.5,-4.43,-5.65,-5.61,0,*58
1508735266.87,26392,11.0,72744.0,-4.43,-5.51,-5.51,0,*5F
1508735268.07,26393,11.0,72742.8,-4.45,-5.51,-5.35,0,*5A
1508735269.29,26394,11.0,72740.5,-4.45,-5.65,-5.39,0,*56
1508735270.51,26395,11.0,72740.0,-4.43,-5.51,-5.47,0,*5F
1508735271.73,26396,11.0,72736.8,-4.45,-5.77,-5.55,0,*5D
1508735272.96,26397,11.0,72734.3,-4.45,-5.65,-5.51,0,*5B
1508735274.16,26398,11.0,72726.5,-4.45,-5.55,-5.51,0,*57
1508735275.38,26399,11.0,72722.8,-4.45,-5.65,-5.43,0,*56
1508735276.59,26400,11.0,72720.5,-4.43,-5.39,-5.39,0,*53
1508735277.79,26401,11.0,72722.5,-4.45,-5.51,-5.43,0,*57
1508735279.01,26402,11.0,72718.0,-4.43,-5.39,-5.35,0,*5D
1508735280.2,26403,11.0,72716.8,-4.45,-5.51,-5.43,0,*55
1508735281.41,26404,11.0,72714.8,-4.45,-5.55,-5.51,0,*55
1508735282.6,26405,11.0,72714.3,-4.45,-5.55,-5.43,0,*57
1508735283.82,26406,11.0,72724.0,-4.43,-5.47,-5.39,0,*5C
1508735285.05,26407,11.0,72730.0,-4.45,-5.51,-5.31,0,*54
1508735286.3,26408,11.0,72714.3,-4.43,-5.35,-5.27,0,*58
1508735287.51,26409,11.0,72726.3,-4.45,-5.43,-5.31,0,*59
1508735288.71,26410,11.0,72726.8,-4.45,-5.51,-5.43,0,*57
1508735289.95,26411,11.0,72726.3,-4.45,-5.65,-5.65,0,*55
1508735291.16,26412,11.0,72724.8,-4.45,-5.55,-5.55,0,*56
1508735292.36,26413,11.0,72726.5,-4.45,-5.55,-5.43,0,*50
1508735293.58,26414,11.0,72714.8,-4.45,-5.65,-5.55,0,*53
1508735294.81,26415,11.0,72716.3,-4.45,-5.65,-5.55,0,*52
1508735296.02,26416,11.0,72718.8,-4.45,-5.55,-5.55,0,*52
1508735297.23,26417,11.0,72714.3,-4.47,-5.51,-5.43,0,*52
1508735298.45,26418,11.0,72710.8,-4.47,-5.55,-5.43,0,*59
1508735299.67,26419,11.0,72724.3,-4.43,-5.51,-5.39,0,*55
1508735300.87,26420,11.0,72732.3,-4.45,-5.39,-5.39,0,*57
1508735302.12,26421,11.0,72730.8,-4.45,-5.31,-5.31,0,*56
1508735303.31,26422,11.0,72720.3,-4.45,-5.39,-5.39,0,*55
1508735304.53,26423,11.0,72730.3,-4.45,-5.43,-5.31,0,*51
1508735305.72,26424,11.0,72734.8,-4.45,-5.39,-5.39,0,*53
1508735306.94,26425,11.0,72718.8,-4.43,-5.35,-5.35,0,*54
1508735308.16,26426,11.0,72720.0,-4.45,-5.39,-5.31,0,*59
1508735309.41,26427,11.0,72728.8,-4.45,-5.31,-5.31,0,*50
1508735310.63,26428,11.0,72728.3,-4.45,-5.39,-5.31,0,*57
1508735311.85,26429,11.0,72730.3,-4.45,-5.39,-5.31,0,*56
1508735313.07,26430,11.0,72712.3,-4.47,-5.39,-5.39,0,*54
1508735314.29,26431,11.0,72714.3,-4.47,-5.51,-5.51,0,*55
1508735315.48,26432,11.0,72716.8,-4.45,-5.43,-5.43,0,*54
1508735316.66,26433,11.0,72722.3,-4.45,-5.43,-5.43,0,*55
1508735317.86,26434,11.0,72718.0,-4.45,-5.51,-5.39,0,*5C
1508735319.08,26435,11.0,72734.3,-4.45,-5.43,-5.31,0,*56